Location: Cranbrook Institute of Science
(42.5830°N, 83.2450°W)
Time: 03:17:04
(UTC-04:00)

Daily predictions for brighter satellites

Satellite Brightness Start Highest point End
(mag) Time Altitude Azimuth Time Altitude Azimuth Time Altitude Azimuth
USA 215 4.4 04:07:03 10° NE 04:10:48 36° NNE 04:10:48 36° NNE
CZ-3 R/B 4.5 03:40:15 10° W 04:35:11 53° SSW 04:48:05 10° SE
CENTAUR R/B 4.4 04:37:24 21° N 04:37:24 21° N 04:41:27 10° NNE
Lacrosse 5 4.0 04:43:15 20° NNE 04:43:15 20° NNE 04:45:03 10° NE
CZ-4C R/B 3.2 04:40:22 52° N 04:41:53 61° NE 04:49:43 10° SE
USA 267 4.0 04:37:57 10° SE 04:42:04 43° SE 04:42:04 43° SE
Cosmos 1943 Rocket 3.2 04:47:54 41° NE 04:47:54 41° NE 04:51:33 10° NNE
ADEOS II 3.0 04:48:28 10° NNE 04:52:28 44° ENE 04:52:28 44° ENE
Okean O Rocket 3.3 05:02:42 10° NNE 05:06:38 31° E 05:07:32 29° ESE
Cosmos 1898 Rocket 4.3 05:09:50 43° NNE 05:09:50 43° NNE 05:13:17 10° NNE
Cosmos 1937 Rocket 3.9 05:10:36 63° ENE 05:10:36 63° ENE 05:15:19 10° NNE
Cosmos 489 Rocket 4.3 05:14:20 84° NNW 05:14:20 84° NNW 05:20:26 10° NNE
Cosmos 2154 Rocket 4.5 05:09:47 10° N 05:16:04 59° E 05:22:16 10° SSE
Cosmos 44 Rocket 4.5 05:20:57 33° SSE 05:20:57 33° SSE 05:23:39 10° SSE
Cosmos 2369 Rocket 3.3 05:28:59 31° NNW 05:28:59 31° NNW 05:32:33 10° N
Meteor 2-19 Rocket 4.3 05:23:54 10° N 05:30:06 85° W 05:36:16 10° S
Cosmos 990 Rocket 3.8 05:32:36 84° NW 05:32:36 84° NW 05:37:44 10° NNE
Cosmos 1610 Rocket 4.3 05:31:26 10° N 05:37:36 76° W 05:43:43 10° S
MOS 1-B 4.2 05:32:15 10° N 05:38:01 71° WNW 05:39:02 58° SW
Cosmos 2327 Rocket 4.5 05:33:56 10° NNW 05:40:07 57° W 05:46:21 10° SSW
Cosmos 2298 Rocket 3.9 05:40:54 66° WNW 05:40:54 66° WNW 05:46:14 10° NNE
Cosmos 1340 Rocket 4.0 05:42:35 35° N 05:42:35 35° N 05:45:01 10° N
Meteor 1-31 Rocket 4.4 05:37:28 10° NNE 05:40:57 34° E 05:44:26 10° SSE
Milstar 3 4.0 05:43:13 23° SSW 05:44:39 25° S 05:50:29 10° SE
Cosmos 1833 4.2 05:50:59 52° WSW 05:51:05 53° WSW 05:56:28 10° S
Cosmos 1707 2.7 05:51:04 79° SSE 05:51:15 85° E 05:55:12 10° N
Cosmos 2219 3.8 05:48:40 10° NNW 05:54:17 57° ENE 05:59:49 10° SE
Cosmos 962 Rocket 4.5 05:48:15 10° N 05:54:26 83° E 06:00:33 10° S
USA 215 4.4 05:50:15 10° NE 05:55:39 29° NNW 05:58:09 23° NW
APEX 3.2 05:57:23 71° SW 05:57:23 71° SW 06:01:44 10° SSE
Meteor 2-5 Rocket 4.1 05:54:47 10° S 06:00:39 70° E 06:06:27 10° NNE
Cosmos 1378 3.0 06:01:44 74° WSW 06:01:51 75° W 06:05:38 10° N
PAYLOAD B 4.1 06:00:04 10° N 06:05:34 73° WNW 06:11:03 10° SSW
Cosmos 2297 Rocket 4.3 06:01:24 10° N 06:06:00 25° NE 06:10:33 10° ESE
Cosmos 2341 Rocket 3.9 05:59:56 10° N 06:06:21 82° W 06:12:44 10° S
Cosmos 158 Rocket 4.4 06:01:25 10° NNW 06:06:48 68° ENE 06:12:10 10° SSE
GPS 2-04 Rocket1 4.3 06:07:14 21° S 06:07:14 21° S 06:09:48 10° SE
Cosmos 2181 Rocket 4.0 06:03:50 10° S 06:10:06 85° E 06:16:18 10° N
Cosmos 1953 Rocket 3.5 06:09:03 33° SW 06:10:44 57° W 06:15:01 10° N
Cosmos 1825 Rocket 4.0 06:12:15 39° WNW 06:12:15 39° WNW 06:16:10 10° N
Cosmos 1656 Rocket 3.7 06:09:34 27° SW 06:12:35 59° WNW 06:18:12 10° NNE
USA 81 4.4 06:07:33 10° S 06:12:46 68° E 06:18:01 10° N
CZ-4B DEB 4.1 06:07:47 10° N 06:13:14 66° WNW 06:18:40 10° SSW
SJ 16-02 2.2 06:09:29 10° S 06:13:45 52° ESE 06:18:02 10° NNE
EO 1 Del DPAF 4.3 06:10:20 10° SE 06:14:00 46° ENE 06:17:41 10° N
OAO 2 Rocket 4.3 06:12:44 27° SW 06:14:17 32° S 06:18:41 10° SE
NOSS 3-1 (C) 3.3 06:10:26 18° SW 06:14:54 89° NW 06:21:23 10° NE
USA 229 DEB 3.9 06:13:07 29° WSW 06:16:26 51° NW 06:23:12 10° NNE
USA 229 3.9 06:13:10 29° WSW 06:16:31 51° NW 06:23:17 10° NNE
PSLV R/B 4.3 06:12:45 10° N 06:16:11 32° WNW 06:16:11 32° WNW
Cosmos 1809 Rocket 4.3 06:10:56 10° N 06:17:04 80° W 06:23:11 10° S
Meteor 1-16 Rocket 4.1 06:13:40 10° NNW 06:19:20 79° W 06:25:09 10° S
NOSS 3-1 (A) 3.6 06:14:45 10° SSW 06:20:27 73° ESE 06:26:53 10° NE
CZ-4B R/B 4.0 06:19:10 10° N 06:23:37 76° WNW 06:28:07 10° SSW
Lacrosse 5 3.8 06:22:28 14° NW 06:24:32 17° N 06:27:51 10° NNE
SKYMED 2 4.5 06:22:04 10° SSE 06:26:16 51° ENE 06:30:29 10° N
Cosmos 1295 Rocket 4.5 06:20:21 10° NNW 06:26:35 65° W 06:32:49 10° S
USA 267 4.3 06:23:10 10° S 06:28:05 22° WSW 06:29:28 21° WSW
CZ-4B R/B 3.3 06:23:30 10° N 06:28:47 53° WNW 06:34:09 10° SW
Landsat 4 3.7 06:25:56 10° S 06:29:39 57° WSW 06:33:23 10° NNW
Cosmos 1356 Rocket 3.5 06:25:44 10° SSW 06:29:57 59° WNW 06:34:14 10° N
Cosmos 1943 Rocket 3.4 06:29:28 20° WNW 06:30:18 21° NW 06:34:27 10° N
CZ-4C R/B 3.5 06:25:41 18° WNW 06:30:20 35° WSW 06:37:20 10° S
ADEOS II 3.3 06:29:05 10° NNW 06:32:57 21° WNW 06:33:23 21° WNW
Tiangong 2 2.1 06:32:51 28° SW 06:33:29 30° SSW 06:36:21 10° SE
Cosmos 1269 Rocket 4.1 06:29:33 10° NNW 06:34:53 84° ENE 06:40:11 10° SSE
Cosmos 1356 3.6 06:33:21 10° S 06:36:49 75° E 06:40:19 10° NNE
USA 116 3.6 06:34:37 10° S 06:38:04 57° W 06:42:01 10° NNW
Meteor 2-21 Rocket 4.4 06:34:19 10° NNW 06:40:21 69° W 06:46:23 10° S
Meteor 1-28 Rocket 3.2 06:38:25 10° S 06:42:10 60° W 06:45:58 10° NNW
Okean O Rocket 2.6 06:39:16 10° NNW 06:42:52 25° WNW 06:44:59 18° WSW
Meteor PRIRODA 4.4 06:41:56 10° N 06:45:16 31° WNW 06:48:36 10° SW
IDEFIX/ARIANE 42P 3.6 06:40:40 10° NNE 06:45:46 50° E 06:50:48 10° S
Cosmos 372 Rocket 4.0 06:45:41 10° SSW 06:50:50 64° WNW 06:56:05 10° NNE
CZ-2C R/B 4.2 06:46:49 10° SSW 06:51:16 39° W 06:55:43 10° NNW
Shenzhou-11 Module 4.4 06:54:22 11° SW 06:55:04 11° SW 06:56:05 10° SSW
Okean-O 2.6 06:52:12 10° N 06:56:39 72° WNW 07:01:03 10° SSW
Cosmos-2242 3.9 06:54:27 10° NNW 06:58:05 27° W 07:01:43 10° SSW
PAYLOAD A 4.2 06:54:12 10° NNE 06:58:55 71° ESE 07:03:42 10° S
Cosmos 2366 rocket 3.9 06:54:11 10° NNW 07:00:16 66° W 07:06:22 10° S
Cosmos 1125 Rocket 3.7 06:55:57 10° SW 07:01:01 48° WNW 07:06:08 10° N
NOAA 6 4.0 06:57:04 10° N 07:02:14 70° WNW 07:07:21 10° SSW
Meteor 1-24 Rocket 4.0 06:59:22 10° SSW 07:05:17 56° WNW 07:11:07 10° N
ERBS 2.6 07:05:28 10° NW 07:08:50 52° SW 07:12:12 10° SSE
Cosmos 2227 Rocket 2.3 07:06:49 10° NNW 07:12:32 89° ENE 07:18:13 10° SSE
SL-8 Rocket 4.5 07:08:07 10° NNW 07:13:53 39° W 07:19:40 10° SSW
Cosmos 494 Rocket 4.2 07:09:02 10° NNW 07:14:14 77° ENE 07:19:26 10° SSE
COSMO-SKYMED 1 2.8 07:10:10 10° S 07:14:20 47° W 07:18:33 10° NNW
Meteor 1-31 Rocket 4.2 07:12:37 10° NNW 07:15:10 17° WNW 07:17:43 10° WSW
Cosmos 1674 2.6 07:12:53 10° S 07:16:37 80° W 07:20:21 10° N
Feng Yun 1-1 Rocket 4.5 07:11:53 10° N 07:17:17 51° WNW 07:22:48 10° SW
Cosmos 2251 Rocket 3.9 07:20:54 10° NNW 07:26:18 72° ENE 07:31:40 10° SSE
DEBRIS 4.1 07:25:48 10° W 07:32:32 34° NNW 07:35:15 10° NE
